Regional Weather Roundup
Issued by NWS Sterling, VA

Home | Current Version | Previous Version | Text Only | Print | Product List | Glossary Off
Versions: 1 2 3 4 5 6 7 8 9 10 11 12 13 14 15 16 17 18 19 20 21 22 23 24 25 26 27 28 29 30 31 32 33 34 35 36 37 38 39 40 41 42 43 44 45 46 47 48 49 50

000
ASUS41 KLWX 031210
RWRLWX

REGIONAL WEATHER ROUNDUP
NATIONAL WEATHER SERVICE BALTIMORE MD/WASHINGTON DC
800 AM EDT THU SEP 03 2015

Note: "FAIR" indicates few or no clouds below 12,000 feet
with no significant weather and/or obstructions to visibility.
 TC=TEMPERATURE CELSIUS

 * =Non NWS site. Station does not report precipitation (e.g. rain,
    snow, etc.), thunder, or fog.

DCZ001-MDZ009-015-VAZ040>042-051-053>054-031300-
WASHINGTON METRO

CITY           SKY/WX    TMP DP  RH WIND       PRES   REMARKS
WASHINGTON NAT MOSUNNY   77  68  73 N6        29.93R
DULLES         MOSUNNY   74  65  73 NW6       29.94R
ANDREWS AFB    SUNNY     76  67  72 NW6       29.92R
FT BELVOIR     SUNNY     69  68  96 CALM      29.93R
QUANTICO       MOSUNNY   71  65  81 NW7       29.94R
COLLEGE PARK*  SUNNY     72  70  94 CALM      29.92R
LEESBURG*      SUNNY     73  70  88 W7        29.96R
MANASSAS*      SUNNY     66  66 100 CALM      29.94R
GAITHERSBURG*  SUNNY     72  66  83 W3        29.98R

$$

MDZ006>007-011-014-031300-
BALTIMORE METRO

CITY           SKY/WX    TMP DP  RH WIND       PRES   REMARKS
BWI AIRPORT    SUNNY     75  67  76 W3        29.91R
MD SCIENCE CTR   N/A     78  67  68 MISG      29.91R
MARTIN STATE   MOSUNNY   73  72  94 CALM      29.93R
ANNAPOLIS      SUNNY     76  70  82 CALM      29.91R
FORT MEADE*    SUNNY     68  64  88 CALM      29.94S

$$

MDZ012-015-019>023-031300-
MARYLAND EASTERN SHORE

CITY           SKY/WX    TMP DP  RH WIND       PRES   REMARKS
OCEAN CITY     SUNNY     73  70  90 NW6       29.89S
SALISBURY      SUNNY     73  71  93 NW3       29.91R FOG
BAY BRIDGE AP*   N/A     77  72  83 CALM      29.92R
CAMBRIDGE*     SUNNY     72  68  88 CALM      29.91R
EASTON*        SUNNY     73  73 100 CALM      29.95R FOG

$$

MDZ017>025-031300-
SOUTHERN MARYLAND

CITY           SKY/WX    TMP DP  RH WIND       PRES   REMARKS
PATUXENT RIVER SUNNY     73  68  84 W5        29.91R
ST INIGOES     SUNNY     75  71  87 NW3       29.91R
LEONARDTOWN*   NOT AVBL

$$

MDZ003>005-031300-
NORTH CENTRAL MARYLAND

CITY           SKY/WX    TMP DP  RH WIND       PRES   REMARKS
FREDERICK*     SUNNY     70  70 100 CALM      29.97R
HAGERSTOWN APT SUNNY     69  65  86 SE6       29.97R FOG
WESTMINSTER*   SUNNY     73  68  83 CALM      29.95S

$$

MDZ501>502-031300-
WESTERN MARYLAND

CITY           SKY/WX    TMP DP  RH WIND       PRES   REMARKS
OAKLAND*         N/A     63  61  94 SW5       30.11R FOG
CUMBERLAND*    CLOUDY    66  66 100 CALM      30.04S VSB<1/4

$$

VAZ025>031-031300-
SHENANDOAH VALLEY

CITY           SKY/WX    TMP DP  RH WIND       PRES   REMARKS
WINCHESTER*    SUNNY     68  66  94 CALM      29.98R
FRONT ROYAL*   FAIR      68  64  88 S7        29.98R
LURAY*         FAIR      63  63 100 CALM      30.01R FOG
NEW MARKET*    FAIR      64  64  99 CALM      30.00S
STAUNTON*      MOSUNNY   64  63  96 CALM      30.05R FOG
WAYNESBORO*    FAIR      65  63  94 CALM      30.04R

$$

WVZ021-048>050-054>055-031300-
EASTERN WEST VIRGINIA PANHANDLE

CITY           SKY/WX    TMP DP  RH WIND       PRES   REMARKS
MARTINSBURG    SUNNY     67  65  93 CALM      29.98R FOG
PETERSBURG*    FOG       63  63 100 CALM      30.03R VSB 1/4

$$

VAZ036>039-050-031300-
CENTRAL FOOTHILLS

CITY           SKY/WX    TMP DP  RH WIND       PRES   REMARKS
CHARLOTTESVILL SUNNY     70  65  84 CALM      29.97R
CULPEPER*      SUNNY     66  65  96 CALM      29.96S FOG
ORANGE*        SUNNY     68  66  94 CALM      29.97R
GORDONSVILLE*  FAIR      67  65  94 CALM      29.95S
WARRENTON*     FAIR      68  67  98 CALM      29.95R

$$

VAZ055>057-031300-
NORTH AND CENTRAL PIEDMONT

CITY           SKY/WX    TMP DP  RH WIND       PRES   REMARKS
FREDERICKSBRG* SUNNY     72  69  93 CALM      29.94R
STAFFORD*      SUNNY     68  65  91 CALM      29.98R

$$

NCZ024-NYZ072-PAZ021-071-VAZ022-071-031300-
OTHER REGIONAL OBSERVATIONS

CITY           SKY/WX    TMP DP  RH WIND       PRES   REMARKS
NEW YORK CITY  SUNNY     76  65  68 NW3       29.92R HAZE
PHILADELPHIA   MOSUNNY   78  64  61 NW6       29.91R
PITTSBURGH     PTSUNNY   72  66  81 CALM      30.01R
ROANOKE        SUNNY     68  64  87 CALM      30.05R
RICHMOND       MOSUNNY   72  67  84 CALM      29.94R
RALEIGH        FOG       69  68  96 CALM      29.97S VSB 1/4

$$

ANZ530>537-031300-
MARINE OBSERVATIONS

STATION/POSITION TIME  TEMP    WIND        PRES
                       AIR SEA DIR/SP/G
                 (UTC) (F)     (DEG/KT/KT) (MB)
THOMAS PT LIGHT  NOT AVBL
BALT KEY BRIDGE  1100   76     260/  5/  6 1012.4R
COVE POINT       1100   73     320/  6/  7 1013.3R
LEWISETTA        1100   71 81  280/  5/  7 1012.5R
SOLOMONS ISLAND  1100      81                N/A
PINEY POINT      1105          290/  7/  8   N/A

$$




USA.gov is the U.S. government's official web portal to all federal, state and local government web resources and services.